OE7SBH-WX Weather Reports


Display with metric or nautical units.
time (UTC)temp
F
wind
direction
speed
MPH
gust
MPH
rain 1hr
in
rain 24hr
in
rain mn
in
humidity
%
barometer
mb
20260503000533 54 306 2.0 3.0 0.00 0.00 0.00 59 1023.7
20260502235533 55 3 1.0 4.0 0.00 0.00 0.00 58 1023.8
20260502234533 56 169 2.0 7.0 0.00 0.00 0.00 55 1023.8
20260502233548 56 175 3.0 6.0 0.00 0.00 0.00 56 1024.0
20260502232630 56 173 4.0 8.0 0.00 0.00 0.00 53 1024.1
20260502231518 57 171 1.0 2.0 0.00 0.00 0.00 55 1024.2
20260502230527 56 274 0.0 1.0 0.00 0.00 0.00 56 1024.2
20260502225554 57 141 0.0 2.0 0.00 0.00 0.00 55 1024.2
20260502224533 57 242 1.0 3.0 0.00 0.00 0.00 54 1024.3
20260502223522 58 268 1.0 2.0 0.00 0.00 0.00 52 1024.2
20260502222542 58 176 2.0 6.0 0.00 0.00 0.00 51 1024.2
20260502221539 58 175 1.0 2.0 0.00 0.00 0.00 51 1024.2
20260502220533 57 158 1.0 2.0 0.00 0.00 0.00 53 1024.1
20260502215532 58 239 0.0 3.0 0.00 0.00 0.00 53 1024.0
20260502214532 59 188 2.0 4.0 0.00 0.00 0.00 50 1024.0
20260502213553 59 185 1.0 2.0 0.00 0.00 0.00 52 1024.0
20260502212533 58 183 1.0 2.0 0.00 0.00 0.00 54 1024.1
20260502211528 59 189 0.0 1.0 0.00 0.00 0.00 52 1024.0
20260502210529 60 174 1.0 4.0 0.00 0.00 0.00 52 1024.1
20260502205517 59 259 1.0 2.0 0.00 0.00 0.00 53 1024.1
20260502204532 60 0.0 0.0 0.00 0.00 0.00 52 1024.1
20260502203522 61 179 1.0 3.0 0.00 0.00 0.00 50 1023.9
20260502202526 60 179 1.0 4.0 0.00 0.00 0.00 52 1024.0
20260502201532 61 209 0.0 2.0 0.00 0.00 0.00 49 1023.9
20260502200533 61 210 0.0 1.0 0.00 0.00 0.00 50 1023.8
20260502195519 61 195 1.0 3.0 0.00 0.00 0.00 51 1023.8
20260502194532 62 160 1.0 2.0 0.00 0.00 0.00 50 1023.6
20260502193528 63 196 1.0 2.0 0.00 0.00 0.00 48 1023.4
20260502192532 63 167 1.0 2.0 0.00 0.00 0.00 47 1023.4
20260502191529 63 186 1.0 2.0 0.00 0.00 0.00 47 1023.2
20260502190530 64 165 1.0 2.0 0.00 0.00 0.00 47 1023.0
20260502185518 64 211 2.0 2.0 0.00 0.00 0.00 46 1022.9
20260502184527 65 179 2.0 3.0 0.00 0.00 0.00 46 1022.8
20260502183534 67 166 1.0 3.0 0.00 0.00 0.00 43 1022.6
20260502182520 67 311 0.0 1.0 0.00 0.00 0.00 40 1022.4
20260502181532 68 268 1.0 2.0 0.00 0.00 0.00 39 1022.2
20260502180553 69 312 2.0 4.0 0.00 0.00 0.00 37 1022.1
20260502163519 75 334 4.0 7.0 0.00 0.00 0.00 28 1022.0
20260502162532 76 331 3.0 6.0 0.00 0.00 0.00 29 1022.1
20260502161533 76 332 3.0 6.0 0.00 0.00 0.00 28 1022.2
20260502160534 77 329 4.0 6.0 0.00 0.00 0.00 26 1022.2
20260502151542 79 331 5.0 10.0 0.00 0.00 0.00 22 1022.6
20260502150522 79 336 6.0 10.0 0.00 0.00 0.00 22 1022.8
20260502130530 79 358 4.0 9.0 0.00 0.00 0.00 25 1024.4
20260502123528 77 334 4.0 8.0 0.00 0.00 0.00 27 1024.8
20260502122550 77 321 5.0 15.0 0.00 0.00 0.00 26 1025.0
20260502121519 77 356 5.0 9.0 0.00 0.00 0.00 25 1025.1
20260502120527 76 328 5.0 9.0 0.00 0.00 0.00 32 1025.4
20260502115516 76 331 3.0 7.0 0.00 0.00 0.00 32 1025.6
20260502114530 77 323 3.0 9.0 0.00 0.00 0.00 31 1025.8
20260502113522 75 7 2.0 7.0 0.00 0.00 0.00 31 1026.1
20260502112526 75 14 2.0 7.0 0.00 0.00 0.00 31 1026.2
20260502111532 73 333 2.0 4.0 0.00 0.00 0.00 31 1026.4
20260502110530 72 308 3.0 6.0 0.00 0.00 0.00 34 1026.6
20260502105518 72 126 2.0 3.0 0.00 0.00 0.00 38 1026.8
20260502104528 71 15 2.0 4.0 0.00 0.00 0.00 38 1027.0
20260502103516 71 349 1.0 3.0 0.00 0.00 0.00 37 1027.1
20260502102532 69 318 2.0 6.0 0.00 0.00 0.00 38 1027.4
20260502101519 70 126 2.0 4.0 0.00 0.00 0.00 38 1027.7
20260502100533 67 46 2.0 3.0 0.00 0.00 0.00 38 1027.7
20260502091533 64 7 2.0 4.0 0.00 0.00 0.00 41 1028.6
20260502090534 63 27 1.0 3.0 0.00 0.00 0.00 43 1028.9
20260502071516 54 51 1.0 2.0 0.00 0.00 0.00 60 1030.3
20260502070521 52 53 1.0 2.0 0.00 0.00 0.00 64 1030.5
20260502065533 51 87 1.0 3.0 0.00 0.00 0.00 67 1030.6
20260502064532 50 78 1.0 2.0 0.00 0.00 0.00 72 1030.8
20260502063519 49 81 1.0 2.0 0.00 0.00 0.00 73 1030.7
20260502062528 47 77 0.0 1.0 0.00 0.00 0.00 74 1030.7
20260502061517 45 91 1.0 2.0 0.00 0.00 0.00 80 1030.8
20260502060533 46 80 1.0 2.0 0.00 0.00 0.00 77 1030.8
20260502055520 46 43 0.0 1.0 0.00 0.00 0.00 78 1030.9
20260502054529 44 42 0.0 1.0 0.00 0.00 0.00 82 1030.9
20260502053519 42 41 0.0 1.0 0.00 0.00 0.00 83 1030.9
20260502052534 40 0.0 0.0 0.00 0.00 0.00 87 1031.0
20260502051533 40 42 0.0 1.0 0.00 0.00 0.00 87 1030.9
20260502050530 40 42 0.0 1.0 0.00 0.00 0.00 88 1031.0
20260502045525 40 42 0.0 1.0 0.00 0.00 0.00 89 1031.0
20260502044529 40 40 1.0 1.0 0.00 0.00 0.00 87 1031.0
20260502043534 40 36 0.0 1.0 0.00 0.00 0.00 87 1031.0
20260502042526 41 205 0.0 1.0 0.00 0.00 0.00 86 1031.0
20260502041532 41 192 2.0 3.0 0.00 0.00 0.00 86 1031.0
20260502040533 40 45 0.0 2.0 0.00 0.00 0.00 88 1030.9
20260502035538 41 254 0.0 1.0 0.00 0.00 0.00 85 1031.0
20260502034527 41 235 1.0 2.0 0.00 0.00 0.00 85 1030.9
20260502033535 41 293 0.0 2.0 0.00 0.00 0.00 85 1031.0
20260502032532 41 295 1.0 1.0 0.00 0.00 0.00 86 1030.9
20260502031519 40 0.0 0.0 0.00 0.00 0.00 86 1031.0
20260502030533 41 316 0.0 1.0 0.00 0.00 0.00 84 1030.9
20260502025526 42 318 1.0 2.0 0.00 0.00 0.00 81 1030.9
20260502024528 42 189 0.0 1.0 0.00 0.00 0.00 83 1030.9
20260502023534 42 189 0.0 1.0 0.00 0.00 0.00 84 1030.9
20260502022552 43 188 0.0 1.0 0.00 0.00 0.00 83 1031.0
20260502021519 42 0.0 0.0 0.00 0.00 0.00 83 1031.0
20260502020533 42 0.0 0.0 0.00 0.00 0.00 84 1030.8
20260502015532 42 0.0 0.0 0.00 0.00 0.00 85 1030.9
20260502014531 43 0.0 0.0 0.00 0.00 0.00 82 1030.9
20260502013539 44 0.0 0.0 0.00 0.00 0.00 80 1030.9
20260502012529 43 12 0.0 1.0 0.00 0.00 0.00 81 1030.9
20260502011522 43 14 0.0 1.0 0.00 0.00 0.00 82 1030.9
20260502010527 45 326 0.0 1.0 0.00 0.00 0.00 77 1030.8
20260502005532 44 331 0.0 1.0 0.00 0.00 0.00 78 1031.0
20260502004531 45 330 1.0 2.0 0.00 0.00 0.00 77 1031.0
20260502003529 44 17 0.0 1.0 0.00 0.00 0.00 77 1031.0
20260502002531 45 86 1.0 2.0 0.00 0.00 0.00 78 1031.0
20260502001525 45 301 2.0 2.0 0.00 0.00 0.00 75 1031.0